Starlink 32925

operational
NORAD ID: 63091 Int'l Des: 2025-037 Owner: SPXS Country: US Constellation: starlink
LEOCIRCULAR

About Starlink 32925

Description loading...

Live Position

Loading 3D Globe...

Upcoming Passes

Altitude History

Altitude vs Time

uPlot chart will show altitude changes over time

Two-Line Element Set

1 63091U 25037Q 25306.42841530 .00002743 00000-0 23756-3 0 9991
2 63091 69.9999 315.1612 0003641 269.1598 90.9144 14.98334129 39480
Epoch: Nov 2, 2025 • Age: 27 hours

Current Status

Altitude 575.2 km
Velocity 7.57 km/s
Sub-Earth Point -5.24°S, 64.91°E
Launch Date Feb 23, 2025
Age 0.6 years
Type internet

Technical Details

Classification Payload
Mass 730.00 kg
Dry Mass 700.00 kg
Total Mass 730.00 kg
Length 0.30 m
Diameter 4.10 m
Span 29.00 m
Shape Box + pan
Manufacturer SPXS
Bus Type Starlink V2M
Phase Status In Orbit
Owner/State SPXS/US

Large Constellations

Loading constellations...